Location: Clanezzo
(45.7500°N, 9.6000°E)
Time: 23:17:35
(UTC+00:00)

ATLAS 2AS CENTAUR R/B - Pass Details

Date: 12 May 2021
Orbit: 949 x 1263 km, 63.7° (Epoch: 07 May)

Event Time Altitude Azimuth Distance (km) Brightness Sun altitude
Rises 20:38:49 0° 321° (NW) 4,125 7.6 -16.5°
Reaches altitude 10° 20:41:45 10° 326° (NW) 3,119 6.5 -16.8°
Maximum altitude 20:49:02 54° 43° (NE) 1,342 3.2 -17.6°
Enters shadow 20:53:31 22° 112° (ESE) 2,159 3.8 -18.0°
